World > North America > United States > Pennsylvania > East Kane  

East Kane, PA Hourly Weather Updates

Feedback E-mail the Weather

Quick Clicks

East Kane, PA Weather Maps

°F °C°F °C
East Kane Weather Map
UTC Time: 5/19/2024, 13:55
Your Time:

East Kane, PA Regional Weather

Expires:202405191400;;480955
ASUS41 KCTP 191310
RWRCTP

REGIONAL WEATHER ROUNDUP
NATIONAL WEATHER SERVICE STATE COLLEGE PA
900 AM EDT SUN MAY 19 2024

Note: "fair" indicates few or no clouds below 12,000 feet with no 
significant weather and/or obstructions to visibility.

* = STATION THAT DOES NOT REPORT PRECIPITATION /E.G. RAIN...SNOW...ETC/
    THUNDER OR FOG.


PAZ004>006-010>012-017>019-024>028-033>037-041-042-045-046-049>053-191400-
CENTRAL PENNSYLVANIA
  
CITY           SKY/WX    TMP DP  RH WIND       PRES   REMARKS
BRADFORD       CLOUDY    61  60  97 CALM      30.04R FOG              
ST MARYS       CLOUDY    61  57  88 CALM      30.07R                  
DUBOIS         CLOUDY    62  57  83 SE3       30.02S                  
CLEARFIELD     CLOUDY    61  57  87 VRB3      30.04R                  
JOHNSTOWN      CLOUDY    58  56  93 CALM      30.03S FOG              
SOMERSET       CLOUDY    55  54  94 CALM      30.05R FOG              
ALTOONA        CLOUDY    61  55  81 CALM      30.03S                  
STATE COLLEGE  CLOUDY    63  59  88 CALM      30.03S                  
REEDSVILLE     CLOUDY    64  59  82 CALM      30.02S                  
WELLSBORO      CLOUDY    61  61 100 SW5       30.03S                  
WILLIAMSPORT   CLOUDY    65  61  87 CALM      30.01S                  
SELINSGROVE    CLOUDY    65  61  87 CALM      30.02S                  
FT INDIANTOWN  NOT AVBL                                               
CAPITAL CITY   MOSUNNY   69  59  70 NW6       30.01S                  
HARRISBURG     MOSUNNY   66  60  81 VRB7      30.00S                  
YORK           SUNNY     68  58  70 CALM      30.00S                  
$$


SKY/WX - Weather  TMP - Temperature  DP - Dew Point  RH - Humidity
WIND - Wind Direction/Speed PRES - Barometric Pressure VSB - Visibility
WCI - Wind Chill Index E13G22 Wind - East Wind 13 mph/Gusts of 22 mph

Trending Headlines

Trending Entertainment Headlines

East Kane Radar Loop

Use the map search tool if you want to place a location marker on the radar map...

East Kane Quick Facts

National Two Day Weather Forecast


E-mail the East Kane Weather Forecast

Voice your opinion or tell us about page issues...